Weather History for Statesboro, GA

Change the Weather History Date:

Wednesday, February 19, 2014

  Actual Average (KSAV) Record (KSAV)
Temperature  
Mean Temperature 65 °F 54 °F  
Max Temperature 79 °F 65 °F 84 °F (1891)
Min Temperature 51 °F 42 °F 19 °F (1958)
Degree Days  
Heating Degree Days 0 12  
Month to date heating degree days 248  
Since 1 July heating degree days 1422  
Cooling Degree Days 0 0  
Month to date cooling degree days 0  
Year to date cooling degree days 3  
Growing Degree Days 15 (Base 50)    
Moisture  
Dew Point 47 °F    
Average Humidity 60    
Maximum Humidity 100    
Minimum Humidity 24    
Precipitation  
Precipitation 0.00 in 0.10 in 1.75 in (1988)
Month to date precipitation 1.87  
Year to date precipitation 5.56  
Sea Level Pressure  
Sea Level Pressure 30.09 in    
Wind  
Wind Speed 7 mph (SW)    
Max Wind Speed 21 mph    
Max Gust Speed 26 mph    
Visibility 10 miles    
Events      
T = Trace of Precipitation, MM = Missing Value Source: NWS Daily Summary

Daily Weather History Graph

Daily Weather History Graph

Search for Another Location

Airport:

Trip Planner

Search our weather history database for the weather conditions in past years. The results will help you decide how hot, cold, wet, or windy it might be!

Date:

Astronomy

Feb. 19, 2014 Rise Set
Actual Time 7:05 AM EST 6:16 PM EST
Civil Twilight 6:40 AM EST 6:41 PM EST
Nautical Twilight 6:12 AM EST 7:09 PM EST
Astronomical Twilight 5:43 AM EST 7:38 PM EST
Moon 10:49 PM EST (2/19) 9:27 AM EST (2/19)
Length of Visible Light 12h 00m
Length of Day
11h 10m
Waning Gibbous, 80% of the Moon is Illuminated
Feb 19
Waning Gibbous
Feb 22
Last Quarter
Mar 1
New
Mar 8
First Quarter
Mar 16
Full

Hourly Weather History & Observations

Time (EST) Temp. Dew Point Humidity Pressure Visibility Wind Dir Wind Speed Gust Speed Precip Events Conditions
12:35 AM 60.1 °F 52.3 °F 76% 30.11 in 10.0 mi South 8.1 mph - N/A   Clear
12:55 AM 59.9 °F 52.0 °F 75% 30.10 in 10.0 mi South 8.1 mph - N/A   Clear
1:15 AM 59.5 °F 51.8 °F 76% 30.10 in 10.0 mi South 9.2 mph - N/A   Clear
1:35 AM 59.5 °F 51.3 °F 74% 30.11 in 10.0 mi SW 4.6 mph - N/A   Clear
1:55 AM 59.0 °F 50.9 °F 74% 30.11 in 10.0 mi SSW 4.6 mph - N/A   Clear
2:15 AM 58.3 °F 50.7 °F 76% 30.11 in 10.0 mi SSW 3.5 mph - N/A   Clear
2:35 AM 57.7 °F 50.9 °F 78% 30.11 in 10.0 mi SSW 4.6 mph - N/A   Clear
2:55 AM 57.6 °F 50.9 °F 78% 30.10 in 10.0 mi South 5.8 mph - N/A   Clear
3:15 AM 57.0 °F 50.9 °F 80% 30.10 in 10.0 mi SSW 3.5 mph - N/A   Clear
3:35 AM 56.5 °F 50.7 °F 81% 30.10 in 10.0 mi SSW 4.6 mph - N/A   Clear
3:55 AM 56.3 °F 53.4 °F 90% 30.10 in 10.0 mi SSW 4.6 mph - N/A   Clear
4:15 AM 56.7 °F 54.7 °F 93% 30.10 in 10.0 mi SSW 5.8 mph - N/A   Clear
4:35 AM 56.7 °F 54.0 °F 91% 30.10 in 10.0 mi SSW 5.8 mph - N/A   Clear
4:55 AM 56.5 °F 55.0 °F 95% 30.10 in 10.0 mi SSW 3.5 mph - N/A   Clear
5:15 AM 55.9 °F 55.0 °F 97% 30.10 in 10.0 mi SSW 4.6 mph - N/A   Clear
5:35 AM 55.8 °F 55.4 °F 99% 30.09 in 10.0 mi SSW 5.8 mph - N/A   Clear
5:55 AM 55.4 °F 55.0 °F 99% 30.10 in 10.0 mi SSW 3.5 mph - N/A   Clear
6:15 AM 54.9 °F 54.9 °F 100% 30.10 in 10.0 mi SSW 3.5 mph - N/A   Clear
6:35 AM 53.1 °F 53.1 °F 100% 30.11 in 7.0 mi Calm Calm - N/A   Clear
6:55 AM 52.2 °F 52.2 °F 100% 30.12 in 5.0 mi Calm Calm - N/A   Clear
7:15 AM 51.4 °F 51.4 °F 100% 30.12 in 4.0 mi South 3.5 mph - N/A   Clear
7:35 AM 54.0 °F 54.0 °F 100% 30.13 in 10.0 mi SSW 3.5 mph - N/A   Clear
7:55 AM 55.4 °F 55.4 °F 100% 30.13 in 10.0 mi SW 3.5 mph - N/A   Clear
8:15 AM 57.4 °F 55.8 °F 94% 30.13 in 10.0 mi SSW 5.8 mph - N/A   Clear
8:35 AM 59.0 °F 54.3 °F 84% 30.13 in 10.0 mi SW 6.9 mph - N/A   Clear
8:55 AM 61.5 °F 51.3 °F 69% 30.13 in 10.0 mi WSW 10.4 mph - N/A   Clear
9:15 AM 63.7 °F 48.9 °F 59% 30.13 in 10.0 mi WSW 6.9 mph - N/A   Clear
9:35 AM 66.0 °F 46.2 °F 49% 30.13 in 10.0 mi WSW 9.2 mph - N/A   Clear
9:55 AM 67.6 °F 42.4 °F 40% 30.13 in 10.0 mi SW 6.9 mph - N/A   Clear
10:15 AM 69.6 °F 37.9 °F 31% 30.13 in 10.0 mi WSW 10.4 mph 18.4 mph N/A   Clear
10:35 AM 70.9 °F 33.8 °F 26% 30.13 in 10.0 mi WSW 15.0 mph 19.6 mph N/A   Clear
10:55 AM 72.7 °F 33.6 °F 24% 30.13 in 10.0 mi WSW 11.5 mph 18.4 mph N/A   Clear
11:15 AM 74.3 °F 36.0 °F 25% 30.12 in 10.0 mi WSW 11.5 mph 19.6 mph N/A   Clear
11:35 AM 74.7 °F 36.7 °F 25% 30.11 in 10.0 mi WSW 11.5 mph 17.3 mph N/A   Clear
11:55 AM 75.0 °F 37.6 °F 26% 30.11 in 10.0 mi WSW 15.0 mph 20.7 mph N/A   Clear
12:15 PM 77.2 °F 38.5 °F 25% 30.10 in 10.0 mi WSW 15.0 mph - N/A   Clear
12:35 PM 77.2 °F 37.8 °F 24% 30.09 in 10.0 mi WSW 12.7 mph 23.0 mph N/A   Clear
12:55 PM 77.7 °F 38.5 °F 24% 30.08 in 10.0 mi West 18.4 mph 26.5 mph N/A   Clear
1:15 PM 77.7 °F 40.5 °F 26% 30.07 in 10.0 mi WSW 17.3 mph 25.3 mph N/A   Clear
1:35 PM 78.4 °F 41.5 °F 27% 30.06 in 10.0 mi West 15.0 mph 20.7 mph N/A   Clear
1:55 PM 79.0 °F 41.0 °F 26% 30.05 in 10.0 mi West 13.8 mph 21.9 mph N/A   Clear
2:15 PM 78.8 °F 41.9 °F 27% 30.04 in 10.0 mi West 12.7 mph 20.7 mph N/A   Clear
2:35 PM 79.9 °F 41.5 °F 26% 30.04 in 10.0 mi WSW 20.7 mph 25.3 mph N/A   Clear
2:55 PM 79.7 °F 41.9 °F 26% 30.03 in 10.0 mi West 16.1 mph 20.7 mph N/A   Clear
3:15 PM 79.5 °F 41.2 °F 25% 30.03 in 10.0 mi West 13.8 mph 18.4 mph N/A   Clear
3:35 PM 79.3 °F 40.8 °F 25% 30.03 in 10.0 mi WSW 16.1 mph 21.9 mph N/A   Clear
3:55 PM 79.3 °F 40.3 °F 25% 30.04 in 10.0 mi West 9.2 mph 20.7 mph N/A   Clear
4:15 PM 79.0 °F 39.4 °F 24% 30.04 in 10.0 mi WSW 15.0 mph 21.9 mph N/A   Clear
4:35 PM 78.8 °F 38.5 °F 24% 30.05 in 10.0 mi WSW 15.0 mph 18.4 mph N/A   Clear
4:55 PM 77.7 °F 40.1 °F 26% 30.05 in 10.0 mi WSW 13.8 mph 18.4 mph N/A   Clear
5:15 PM 76.1 °F 40.8 °F 28% 30.05 in 10.0 mi WSW 6.9 mph - N/A   Clear
5:35 PM 75.2 °F 41.4 °F 30% 30.05 in 10.0 mi WSW 6.9 mph - N/A   Clear
5:55 PM 73.9 °F 42.3 °F 32% 30.05 in 10.0 mi SW 4.6 mph - N/A   Clear
6:15 PM 73.0 °F 43.0 °F 34% 30.05 in 10.0 mi SSW 4.6 mph - N/A   Clear
6:35 PM 71.8 °F 43.9 °F 37% 30.05 in 10.0 mi SW 3.5 mph - N/A   Clear
6:55 PM 70.7 °F 44.6 °F 39% 30.06 in 10.0 mi SSW 3.5 mph - N/A   Clear
7:15 PM 65.5 °F 45.9 °F 49% 30.06 in 10.0 mi Calm Calm - N/A   Clear
7:35 PM 64.2 °F 46.8 °F 53% 30.07 in 10.0 mi Calm Calm - N/A   Clear
7:55 PM 61.0 °F 46.4 °F 59% 30.07 in 10.0 mi Calm Calm - N/A   Clear
8:15 PM 58.6 °F 47.5 °F 66% 30.08 in 10.0 mi Calm Calm - N/A   Clear
8:35 PM 57.6 °F 48.0 °F 70% 30.08 in 10.0 mi Calm Calm - N/A   Clear
8:55 PM 56.3 °F 47.7 °F 73% 30.08 in 10.0 mi Calm Calm - N/A   Clear
9:15 PM 55.6 °F 47.3 °F 74% 30.09 in 10.0 mi Calm Calm - N/A   Clear
9:35 PM 57.4 °F 48.4 °F 72% 30.09 in 10.0 mi Calm Calm - N/A   Clear
9:55 PM 56.5 °F 47.8 °F 73% 30.10 in 10.0 mi Calm Calm - N/A   Clear
10:15 PM 55.6 °F 48.2 °F 76% 30.10 in 10.0 mi Calm Calm - N/A   Clear
10:35 PM 54.3 °F 48.6 °F 81% 30.10 in 10.0 mi Calm Calm - N/A   Clear
10:55 PM 53.8 °F 48.4 °F 82% 30.10 in 10.0 mi Calm Calm - N/A   Clear
11:35 PM 52.2 °F 51.1 °F 96% 30.11 in 10.0 mi Calm Calm - N/A   Clear
11:55 PM 53.2 °F 51.4 °F 94% 30.11 in 10.0 mi Calm Calm - N/A   Clear